TimeEST,TemperatureF,Dew PointF,Humidity,Sea Level PressureIn,VisibilityMPH,Wind Direction,Wind SpeedMPH,Gust SpeedMPH,PrecipitationIn,Events,Conditions,WindDirDegrees,DateUTC
9:15 AM,48.2,46.4,93,30.33,10.0,South,10.4,-,N/A,,Clear,170,2012-12-04 14:15:00
9:55 AM,51.8,46.4,82,30.32,10.0,South,13.8,19.6,N/A,,Clear,170,2012-12-04 14:55:00
10:35 AM,51.8,46.4,82,30.31,10.0,South,11.5,18.4,N/A,,Clear,190,2012-12-04 15:35:00
10:55 AM,53.6,46.4,77,30.31,10.0,South,11.5,17.3,N/A,,Clear,180,2012-12-04 15:55:00
11:15 AM,53.6,46.4,77,30.29,10.0,South,13.8,-,N/A,,Mostly Cloudy,180,2012-12-04 16:15:00
11:55 AM,51.8,46.4,82,30.28,10.0,South,11.5,-,N/A,,Overcast,190,2012-12-04 16:55:00
12:35 PM,51.8,46.4,82,30.27,10.0,South,10.4,-,N/A,,Overcast,190,2012-12-04 17:35:00
1:15 PM,51.8,48.2,88,30.25,10.0,South,10.4,-,N/A,,Overcast,190,2012-12-04 18:15:00
1:35 PM,51.8,46.4,82,30.24,10.0,South,12.7,-,N/A,,Overcast,180,2012-12-04 18:35:00
1:55 PM,51.8,46.4,82,30.23,10.0,South,13.8,18.4,N/A,,Overcast,190,2012-12-04 18:55:00
2:35 PM,51.8,46.4,82,30.23,10.0,South,10.4,16.1,N/A,,Overcast,180,2012-12-04 19:35:00
3:15 PM,51.8,48.2,88,30.22,10.0,South,15.0,19.6,N/A,,Overcast,180,2012-12-04 20:15:00
3:35 PM,51.8,46.4,82,30.21,10.0,South,11.5,19.6,N/A,,Overcast,180,2012-12-04 20:35:00
3:55 PM,51.8,48.2,88,30.21,10.0,South,11.5,16.1,N/A,,Overcast,180,2012-12-04 20:55:00
4:35 PM,50.0,48.2,94,30.20,10.0,South,11.5,-,N/A,,Overcast,180,2012-12-04 21:35:00
4:55 PM,50.0,48.2,94,30.20,10.0,South,10.4,-,N/A,,Overcast,180,2012-12-04 21:55:00
5:15 PM,50.0,48.2,94,30.20,10.0,South,12.7,-,N/A,,Overcast,190,2012-12-04 22:15:00
5:36 PM,51.8,48.2,88,30.19,10.0,South,11.5,18.4,N/A,,Overcast,180,2012-12-04 22:36:00
5:55 PM,51.8,48.2,88,30.19,10.0,South,12.7,18.4,N/A,,Overcast,180,2012-12-04 22:55:00
6:15 PM,51.8,48.2,88,30.18,10.0,South,13.8,-,N/A,,Overcast,190,2012-12-04 23:15:00
6:55 PM,50.0,48.2,94,30.17,10.0,South,10.4,-,N/A,,Mostly Cloudy,180,2012-12-04 23:55:00
7:15 PM,50.0,48.2,94,30.16,10.0,South,11.5,-,N/A,,Overcast,180,2012-12-05 00:15:00
7:35 PM,50.0,48.2,94,30.15,10.0,South,11.5,18.4,N/A,,Mostly Cloudy,180,2012-12-05 00:35:00
7:55 PM,48.2,48.2,100,30.14,10.0,South,10.4,-,N/A,,Mostly Cloudy,180,2012-12-05 00:55:00
8:15 PM,50.0,48.2,94,30.13,10.0,South,15.0,19.6,N/A,,Mostly Cloudy,180,2012-12-05 01:15:00
8:35 PM,50.0,48.2,94,30.13,10.0,South,13.8,20.7,N/A,,Partly Cloudy,180,2012-12-05 01:35:00
9:35 PM,50.0,48.2,94,30.10,10.0,South,12.7,19.6,N/A,,Clear,180,2012-12-05 02:35:00
9:55 PM,50.0,48.2,94,30.09,10.0,South,13.8,20.7,N/A,,Clear,180,2012-12-05 02:55:00
10:15 PM,51.8,48.2,88,30.08,10.0,South,16.1,20.7,N/A,,Clear,190,2012-12-05 03:15:00
10:35 PM,51.8,48.2,88,30.07,10.0,South,13.8,20.7,N/A,,Clear,180,2012-12-05 03:35:00
10:55 PM,51.8,48.2,88,30.06,10.0,South,10.4,17.3,N/A,,Clear,180,2012-12-05 03:55:00
11:15 PM,51.8,48.2,88,30.05,10.0,South,13.8,20.7,N/A,,Clear,190,2012-12-05 04:15:00
11:35 PM,51.8,48.2,88,30.05,10.0,South,11.5,20.7,N/A,,Clear,190,2012-12-05 04:35:00
11:55 PM,51.8,48.2,88,30.04,10.0,South,13.8,-,N/A,,Scattered Clouds,190,2012-12-05 04:55:00